Other Public Products
Issued by NWS Grand Forks, ND

Home | Current Version | Previous Version | Text Only | Print | Product List | Glossary Off
Versions: 1 2 3 4 5 6 7 8 9 10 11 12 13 14 15 16 17 18 19 20 21 22 23 24 25 26 27 28 29 30 31 32 33 34 35 36 37 38 39 40 41 42 43 44 45 46 47 48 49 50

000
FPUS83 KFGF 272331
OPUFGF
PRAIRIE TO PINES WEATHER ROUNDUP
NATIONAL WEATHER SERVICE EASTERN NORTH DAKOTA/GRAND FORKS ND
600 PM CDT TUE JUN 27 2017

 **SATELLITE DATA USED TO AUGMENT SKY COVER AT AUTOMATED STATIONS**
 *****  WEATHER ACROSS EASTERN NORTH DAKOTA  *****

CITY           SKY/WX    TMP DP  RH WIND       PRES   REMARKS
GRAND FORKS    FAIR      79  49  34 S18G28    29.67F
GRAND FORKS AF FAIR      78  48  34 S22G30    29.67F
GRAND CITY NWS NOT AVBL
BUXTON         NOT AVBL
DEVILS LAKE    FAIR      80  51  36 S16G29    29.62F
FARGO          FAIR      77  47  34 S18G29    29.69F
WAHPETON ARPT  FAIR      70  50  49 SE15      29.69F
$$

 *****  WEATHER ACROSS CENTRAL AND WESTERN NORTH DAKOTA  *****

CITY           SKY/WX    TMP DP  RH WIND       PRES   REMARKS
JAMESTOWN      FAIR      83  49  30 S22G31    29.60F
BISMARCK       PTSUNNY   88  62  41 S16       29.51F
MINOT          FAIR      85  57  38 SE12      29.52F
MINOT AFB      FAIR      83  58  42 SW5       29.51F
GARRISON         N/A     80  60  50 SE6       29.51F
WILLISTON      FAIR      82  50  32 N20G31    29.56R
DICKINSON      FAIR      85  46  25 NW13      29.53R
HETTINGER      FAIR      89  45  21 W21       29.55F
$$

 *****  OTHER OBSERVATIONS NORTHEAST NORTH DAKOTA  *****

CITY           SKY/WX    TMP DP  RH WIND       PRES   REMARKS
WALHALLA       NOT AVBL
LANGDON        FAIR      75  54  46 S16G26    29.64F
CAVALIER         N/A    N/A N/A N/A MISG      29.63
GRAFTON        FAIR      77  48  36 S20G28    29.67S
CANDO          NOT AVBL
FORT TOTTEN      N/A     79  50  35 S14       29.95S
ROLLA            N/A     77  55  47 S20G25    29.58F
RUGBY          NOT AVBL
 ***** THE ABOVE OBSERVATIONS ARE NON NWS ARE NOT QUALITY
        CONTROLLED AND MAY MIS-REPORT RAIN FOR SNOW...
$$

 *****  OTHER OBSERVATIONS SOUTHEAST NORTH DAKOTA *****

CITY           SKY/WX    TMP DP  RH WIND       PRES   REMARKS
COOPERSTOWN    FAIR      79  48  34 S20       29.65F
VALLEY CITY    FAIR      79  50  36 S17G28    29.65F
OAKES          NOT AVBL
GWINNER        CLOUDY    79  52  38 S25       29.65F
SHEYENNE NWR     N/A     78  55  44 S14       29.95S
BUFFALO        NOT AVBL
WYNDMERE       NOT AVBL
 ***** THE ABOVE OBSERVATIONS ARE NON NWS ARE NOT QUALITY
       CONTROLLED AND MAY MIS-REPORT RAIN FOR SNOW...
$$

  *****  WEATHER ACROSS NORTHERN MINNESOTA  *****

CITY           SKY/WX    TMP DP  RH WIND       PRES   REMARKS
FLAG ISLAND    FAIR      70  54  56 S14       29.73F
WARROAD        FAIR      75  50  41 S6        29.73F
ROSEAU         FAIR      75  52  43 S16       29.71F
HALLOCK        FAIR      75  41  29 S18G24    29.66F
THF RVR FALLS  FAIR      76  45  33 S17       29.73F
HALSTAD          N/A     74  48  39 S22         N/A
FOSSTON        FAIR      73  45  35 S16       29.75F
BAUDETTE       FAIR      71  47  42 S8        29.77F
WASKISH        FAIR      73  48  40 S8        29.77F
CROOKSTON      FAIR      75  45  33 S22       29.70S
$$
  *****  WEATHER ACROSS CENTRAL AND WEST MINNESOTA  *****

CITY           SKY/WX    TMP DP  RH WIND       PRES   REMARKS
BEMIDJI        FAIR      74  44  34 S16       29.77F
PARK RAPIDS    FAIR      76  41  28 S21G28    29.79S
WADENA         FAIR      72  45  37 S13G22    29.78F
DETROIT LAKES  FAIR      73  45  35 S15G21    29.76F
MOORHEAD       FAIR      73  45  35 S18G24    29.71S
FERGUS FALLS   FAIR      66  52  59 S10       29.71S
ELBOW LAKE     MOCLDY    69  48  47 S18G30    29.72S
MORRIS MN      LGT RAIN  68  54  60 S26       29.69F
STAPLES        FAIR      73  39  29 S18       29.80S
WHEATON        FAIR      75  43  31 SE18G28   29.70F
$$
  *****  WEATHER ELSEWHERE ACROSS MINNESOTA  *****

CITY           SKY/WX    TMP DP  RH WIND       PRES   REMARKS
DULUTH         FAIR      72  45  37 SW16      29.85F
INTRNTL FALLS  FAIR      71  45  39 SW8       29.78F
ELY            FAIR      72  43  35 SW12      29.83
CLOQUET        FAIR      72  37  28 SW13G21   29.85F
BRAINERD       FAIR      73  42  32 S15       29.82F
HIBBING        FAIR      71  42  35 S9        29.83F
ALEXANDRIA     FAIR      70  44  39 S15G23    29.81F
SAINT CLOUD    FAIR      75  44  33 S16G24    29.82F
MINNEAPOLIS    PTSUNNY   76  41  28 S18       29.87F
$$

  *****  WEATHER ACROSS SOUTH DAKOTA  *****

CITY           SKY/WX    TMP DP  RH WIND       PRES   REMARKS
SIOUX FALLS    PTSUNNY   78  56  46 SE22G29   29.75F
BROOKINGS      FAIR      78  52  40 S30       29.71F
WATERTOWN      FAIR      76  49  38 S23G33    29.71F
HURON          FAIR      81  54  39 S22G36    29.62F
SISSETON         N/A     79  48  33 S22G32    29.68F
ABERDEEN       FAIR      80  51  36 S24G33    29.64F
MITCHELL       FAIR      84  57  39 SE24G35   29.65F
PIERRE         FAIR      90  59  35 S23G29    29.51F
MOBRIDGE       FAIR      88  57  34 S16G25    29.50F
RAPID CITY     FAIR      89  46  22 N13       29.59F
$$

  *****  SOME WEATHER IN NEARBY STATES *****

CITY           SKY/WX    TMP DP  RH WIND       PRES   REMARKS
GLASGOW MT     FAIR      82  53  36 N22G33    29.62R
GREAT FALLS MT FAIR      79  52  38 E16G22    29.77F
CHEYENNE WY    FAIR      85  32  15 NW21G30   29.87S
SCOTTSBLUFF NE FAIR      87  54  32 NE9       29.68F
OMAHA NE       PTSUNNY   81  63  54 SE25G32   29.84F
DES MOINES IA  FAIR      80  52  37 SE15      29.92F
DAVENPORT IA   NOT AVBL
CHICAGO IL     PTSUNNY   76  43  30 W9        30.03F
EAU CLAIRE WI  FAIR      75  43  31 SW14      29.92F
LA CROSSE WI   FAIR      78  46  32 S12       29.95F
$$

  *****  SOME NATIONAL WEATHER *****

CITY           SKY/WX    TMP DP  RH WIND       PRES   REMARKS
LA GUARDIA NY  PTSUNNY   76  52  43 W14G21    29.93R
RALEIGH NC     FAIR      79  53  40 N8        30.04F
ATLANTA GA     FAIR      83  53  35 N13       30.04F
NEW ORLEANS LA CLOUDY    83  63  50 E3        29.98F
OKLAHOMA CITY  FAIR      91  61  36 S15G22    29.91F HX  91
ALBUQUERQUE NM FAIR      91  44  19 S28G33    29.98F
SALT LAKE CITY FAIR      90  34  13 N12G17    29.90F
LOS ANGELES CA FAIR      74  59  59 W12       29.86F
BOISE ID       FAIR      88  43  20 NW14      29.84F
SEATTLE WA     FAIR      67  51  56 S9        30.01F
$$

*** WEATHER ACROSS MANITOBA...SASKATCHEWAN AND ONTARIO ***
                ***ONTARIO***

CITY           SKY/WX    TMP DP  RH WIND       PRES   REMARKS
GERALDTON      MOSUNNY   68  52  56 SW10      29.77F
THUNDER BAY    MOSUNNY   73  45  35 SW16G28   29.79F
SIOUX LOOKOUT  PTSUNNY   72  43  35 SW12      29.75F
TORONTO        MOSUNNY   68  45  42 NW17G26   29.95S
BIG TROUT LK   MOSUNNY   63  46  55 N10       29.71R
PICKLE LAKE    PTSUNNY   75  37  25 W14       29.68F
DRYDEN         CLOUDY    70  41  35 SW13      29.76F
KENORA         PTSUNNY   70  45  40 SW10G17   29.75F
$$
                *** MANITOBA***

CITY           SKY/WX    TMP DP  RH WIND       PRES   REMARKS
BRANDON        PTSUNNY   77  59  53 S14       29.55F
DAUPHIN        SUNNY     77  63  61 S9        29.50F
ISLAND LAKE    SUNNY     68  46  45 NE9G20    29.72S
PILOT MOUND      N/A     73  54  49 S22         N/A
THE PAS        PTSUNNY   72  45  37 E17G31    29.56S
THOMPSON       PTSUNNY   61  41  48 E12G21    29.79S
WINNIPEG       PTSUNNY   77  52  41 S18G29    29.64F
LYNN LAKE      SUNNY     63  43  48 E18G26    29.74S
CHURCHILL      MOSUNNY   48  41  76 NE15      29.99S
GILLAM         MOSUNNY   57  39  51 E15G23    29.87R
$$
                ***SASKATCHEWAN***

CITY           SKY/WX    TMP DP  RH WIND       PRES   REMARKS
ESTEVAN        LGT RAIN  75  59  57 NW17G25   29.56R
KINDERSLEY     MOSUNNY   70  37  30 NW23G33   29.69R
LLOYDMINSTER   MOSUNNY   63  45  51 NW24G32   29.65S
PRINCE ALBERT  PTSUNNY   68  55  64 NW10      29.53R
REGINA         PTSUNNY   64  61  88 NW14      29.59F
YORKTON        SUNNY     77  57  50 S7        29.49F



USA.gov is the U.S. government's official web portal to all federal, state and local government web resources and services.